Weather History for KBKL - March, 2014

Change the Weather History Date:

Saturday, March 22, 2014

  Actual Average Record
Temperature  
Mean Temperature 42 °F -  
Max Temperature 53 °F 44 °F 78 °F (2012)
Min Temperature 34 °F 31 °F 17 °F (2002)
Degree Days  
Heating Degree Days 24    
Moisture  
Dew Point 31 °F    
Average Humidity 81    
Maximum Humidity 93    
Minimum Humidity 58    
Precipitation  
Precipitation 0.00 in - - ()
Sea Level Pressure  
Sea Level Pressure 29.95 in    
Wind  
Wind Speed 13 mph (WSW)    
Max Wind Speed 24 mph    
Max Gust Speed 43 mph    
Visibility 9 miles    
Events Rain    
Averages and records for this station are not official NWS values.
T = Trace of Precipitation, MM = Missing Value Source: NWS Daily Summary

Daily Weather History Graph

Daily Weather History Graph

Search for Another Location

Airport or City:

Trip Planner

Search our weather history database for the weather conditions in past years. The results will help you decide how hot, cold, wet, or windy it might be!

Date:

Astronomy

Mar. 22, 2014 Rise Set
Actual Time 7:26 AM EDT 7:41 PM EDT
Civil Twilight 6:59 AM EDT 8:08 PM EDT
Nautical Twilight 6:26 AM EDT 8:41 PM EDT
Astronomical Twilight 5:53 AM EDT 9:14 PM EDT
Moon 1:02 AM EDT (3/22) 11:05 AM EDT (3/22)
Length of Visible Light 13h 09m
Length of Day
12h 14m
Waning Gibbous, 65% of the Moon is Illuminated
Mar 22
Waning Gibbous
Mar 23
Last Quarter
Mar 30
New
Apr 7
First Quarter
Apr 15
Full

Hourly Weather History & Observations

Time (EDT) Temp. Windchill Dew Point Humidity Pressure Visibility Wind Dir Wind Speed Gust Speed Precip Events Conditions
12:53 AM 44.1 °F 36.2 °F 34.0 °F 68% 29.71 in 10.0 mi SSE 18.4 mph - N/A   Clear
1:53 AM 46.0 °F 38.5 °F 34.0 °F 63% 29.67 in 10.0 mi SSE 19.6 mph 28.8 mph N/A   Clear
2:53 AM 48.0 °F - 34.0 °F 58% 29.64 in 10.0 mi South 15.0 mph - N/A   Mostly Cloudy
3:31 AM 39.2 °F 30.2 °F 32.0 °F 75% 29.69 in 10.0 mi WNW 17.3 mph 42.6 mph N/A   Mostly Cloudy
3:53 AM 36.0 °F 28.0 °F 32.0 °F 86% 29.72 in 9.0 mi WSW 11.5 mph - N/A   Scattered Clouds
4:53 AM 36.0 °F 28.5 °F 33.1 °F 89% 29.73 in 7.0 mi SW 10.4 mph - 0.00 in   Overcast
5:53 AM 39.9 °F 33.4 °F 35.1 °F 83% 29.75 in 10.0 mi SW 10.4 mph - N/A   Mostly Cloudy
6:03 AM 41.0 °F 33.5 °F 35.6 °F 81% 29.74 in 10.0 mi SW 13.8 mph - N/A   Overcast
6:53 AM 39.9 °F 29.5 °F 35.1 °F 83% 29.81 in 10.0 mi West 24.2 mph 29.9 mph N/A   Overcast
7:53 AM 36.0 °F 25.3 °F 34.0 °F 93% 29.88 in 4.0 mi West 19.6 mph - N/A   Overcast
8:53 AM 35.1 °F 26.4 °F 33.1 °F 92% 29.94 in 4.0 mi West 12.7 mph - N/A   Overcast
9:53 AM 35.1 °F 27.4 °F 30.9 °F 85% 29.99 in 10.0 mi WNW 10.4 mph - N/A   Mostly Cloudy
10:06 AM 35.6 °F 29.9 °F 30.2 °F 81% 29.99 in 10.0 mi WNW 6.9 mph - N/A   Scattered Clouds
10:22 AM 35.6 °F 29.2 °F 30.2 °F 81% 30.00 in 10.0 mi WNW 8.1 mph - N/A   Mostly Cloudy
10:53 AM 35.1 °F 31.0 °F 30.9 °F 85% 30.03 in 10.0 mi West 4.6 mph - N/A   Overcast
11:53 AM 36.0 °F 30.3 °F 30.9 °F 82% 30.05 in 9.0 mi West 6.9 mph - N/A   Overcast
12:53 PM 35.1 °F 29.3 °F 30.9 °F 85% 30.08 in 10.0 mi West 6.9 mph - N/A   Overcast
1:53 PM 35.1 °F 31.0 °F 30.0 °F 82% 30.09 in 10.0 mi West 4.6 mph - N/A   Overcast
2:53 PM 35.1 °F 31.0 °F 30.9 °F 85% 30.08 in 8.0 mi West 4.6 mph - N/A   Overcast
3:53 PM 35.1 °F 29.3 °F 30.9 °F 85% 30.10 in 9.0 mi West 6.9 mph - N/A   Overcast
4:53 PM 35.1 °F 28.6 °F 30.0 °F 82% 30.09 in 10.0 mi WSW 8.1 mph - N/A   Overcast
5:53 PM 35.1 °F 29.3 °F 28.0 °F 76% 30.10 in 10.0 mi WSW 6.9 mph - N/A   Overcast
6:53 PM 35.1 °F 28.6 °F 28.9 °F 78% 30.12 in 10.0 mi WSW 8.1 mph - N/A   Overcast
7:53 PM 35.1 °F 27.9 °F 30.0 °F 82% 30.13 in 10.0 mi WSW 9.2 mph - N/A   Overcast
8:53 PM 35.1 °F 27.9 °F 30.0 °F 82% 30.14 in 10.0 mi WSW 9.2 mph - N/A   Overcast
9:53 PM 35.1 °F 27.9 °F 28.9 °F 78% 30.14 in 10.0 mi WSW 9.2 mph - N/A   Overcast
10:53 PM 35.1 °F 27.9 °F 28.9 °F 78% 30.14 in 10.0 mi West 9.2 mph - 0.00 in   Overcast
11:53 PM 34.0 °F 24.2 °F 28.9 °F 82% 30.16 in 10.0 mi NW 15.0 mph - N/A Rain Rain